This is the latest recevied weather packets stored in our database for station/object F4FEB-14. If no packets are shown the sender has not sent any weather packets the latest 10 day(s).
| Time | Temp. | Humidity | Pressure | Rain* | Wind** | Luminosity | Snow |
|---|---|---|---|---|---|---|---|
| 1777981785 | 12.78° C | 100% | 1010.9 hPa | 1.02 mm | - | - | - |
| 1777981484 | 12.78° C | 100% | 1010.9 hPa | 1.02 mm | - | - | - |
| 1777980881 | 12.78° C | 100% | 1010.8 hPa | 0.76 mm | - | - | - |
| 1777980581 | 12.78° C | 100% | 1011 hPa | 0.76 mm | - | - | - |
| 1777979978 | 12.78° C | 100% | 1010.8 hPa | 0.51 mm | - | - | - |
| 1777979677 | 12.78° C | 100% | 1010.9 hPa | 0.25 mm | - | - | - |
| 1777979075 | 13.89° C | 100% | 1010.9 hPa | 0.51 mm | - | - | - |
| 1777978170 | 13.89° C | 100% | 1010.8 hPa | 0 mm | - | - | - |
| 1777977870 | 14.44° C | 100% | 1010.8 hPa | 0 mm | - | - | - |
| 1777977568 | 14.44° C | 100% | 1010.9 hPa | 0 mm | - | - | - |
| 1777977267 | 15° C | 100% | 1010.8 hPa | 0 mm | - | - | - |
| 1777976061 | 13.89° C | 100% | 1011 hPa | 0 mm | - | - | - |
| 1777976060 | 13.89° C | 100% | 1011 hPa | 0 mm | - | - | - |
| 1777975457 | 13.33° C | 100% | 1011 hPa | 0.25 mm | - | - | - |
| 1777975155 | 13.89° C | 100% | 1010.9 hPa | 0 mm | - | - | - |
| 1777974855 | 14.44° C | 100% | 1010.9 hPa | 0 mm | - | - | - |
| 1777974554 | 14.44° C | 100% | 1010.8 hPa | 0 mm | - | - | - |
| 1777974251 | 14.44° C | 100% | 1010.8 hPa | 0 mm | - | - | - |
| 1777973949 | 14.44° C | 100% | 1010.8 hPa | 0 mm | - | - | - |
| 1777973646 | 14.44° C | 100% | 1010.9 hPa | 0 mm | - | - | - |
| 1777973343 | 14.44° C | 100% | 1010.7 hPa | 0 mm | - | - | - |
| 1777972737 | 15.56° C | 100% | 1010.7 hPa | 0 mm | - | - | - |
| 1777972436 | 15.56° C | 100% | 1010.7 hPa | 0 mm | - | - | - |
| 1777972134 | 15.56° C | 100% | 1010.6 hPa | 0 mm | - | - | - |
| 1777971833 | 15.56° C | 100% | 1010.7 hPa | 0 mm | - | - | - |
* Rain latest hour (hover to see other rain measurements)
** Current wind speed in m/s (hover to see current wind gust speed)